| time (UTC) | temp F | wind direction | speed knots | gust knots | rain 1hr in | rain 24hr in | rain mn in | humidity % | barometer mb |
| 20260506145101 | 55 | 17 | 2.6 | 7.0 | 0.00 | 0.02 | 0.02 | 78 | 1011.4 |
| 20260506144413 | 55 | 3 | 2.6 | 5.2 | 0.00 | 0.02 | 0.02 | 79 | 1011.4 |
| 20260506143300 | 54 | 10 | 2.6 | 7.0 | 0.00 | 0.02 | 0.02 | 79 | 1011.3 |
| 20260506142401 | 53 | 15 | 3.5 | 7.8 | 0.00 | 0.02 | 0.02 | 80 | 1011.4 |
| 20260506141500 | 53 | 353 | 3.5 | 8.7 | 0.00 | 0.02 | 0.02 | 80 | 1011.5 |
| 20260506140812 | 53 | 360 | 4.3 | 10.4 | 0.00 | 0.02 | 0.02 | 81 | 1011.4 |
| 20260506135915 | 53 | 357 | 5.2 | 9.6 | 0.00 | 0.02 | 0.02 | 81 | 1011.4 |
| 20260506134800 | 53 | 25 | 4.3 | 9.6 | 0.00 | 0.02 | 0.02 | 83 | 1011.4 |
| 20260506134109 | 53 | 9 | 4.3 | 9.6 | 0.00 | 0.02 | 0.02 | 84 | 1011.5 |
| 20260506133001 | 53 | 25 | 3.5 | 8.7 | 0.00 | 0.02 | 0.02 | 85 | 1011.4 |
| 20260506132101 | 53 | 29 | 4.3 | 8.7 | 0.00 | 0.02 | 0.02 | 85 | 1011.4 |
| 20260506131201 | 53 | 22 | 4.3 | 9.6 | 0.00 | 0.02 | 0.02 | 83 | 1011.3 |
| 20260506130301 | 53 | 355 | 5.2 | 10.4 | 0.00 | 0.02 | 0.02 | 83 | 1011.3 |
| 20260506125403 | 53 | 357 | 4.3 | 9.6 | 0.00 | 0.02 | 0.02 | 83 | 1011.2 |
| 20260506124503 | 53 | 1 | 3.5 | 7.8 | 0.00 | 0.02 | 0.02 | 84 | 1011.2 |
| 20260506123601 | 52 | 357 | 3.5 | 7.8 | 0.01 | 0.02 | 0.02 | 86 | 1011.2 |
| 20260506122913 | 52 | 346 | 3.5 | 7.8 | 0.01 | 0.02 | 0.02 | 87 | 1011.2 |
| 20260506121800 | 52 | 3 | 3.5 | 7.8 | 0.01 | 0.02 | 0.02 | 87 | 1011.2 |
| 20260506120901 | 52 | 8 | 3.5 | 8.7 | 0.02 | 0.02 | 0.02 | 86 | 1011.2 |
| 20260506120000 | 52 | 8 | 3.5 | 8.7 | 0.02 | 0.02 | 0.02 | 88 | 1011.1 |
| 20260506115101 | 52 | 7 | 3.5 | 6.1 | 0.02 | 0.02 | 0.02 | 88 | 1011.0 |
| 20260506114200 | 52 | 32 | 3.5 | 7.0 | 0.02 | 0.02 | 0.02 | 87 | 1011.0 |
| 20260506113300 | 52 | 40 | 3.5 | 8.7 | 0.02 | 0.02 | 0.02 | 87 | 1011.0 |
| 20260506112401 | 52 | 56 | 4.3 | 9.6 | 0.02 | 0.02 | 0.02 | 86 | 1011.0 |
| 20260506111500 | 53 | 61 | 6.1 | 10.4 | 0.02 | 0.02 | 0.02 | 83 | 1011.0 |
| 20260506110600 | 54 | 37 | 4.3 | 10.4 | 0.01 | 0.01 | 0.01 | 82 | 1011.0 |
| 20260506105701 | 54 | 7 | 4.3 | 10.4 | 0.00 | 0.00 | 0.00 | 77 | 1010.9 |
| 20260506104800 | 54 | 341 | 5.2 | 11.3 | 0.00 | 0.00 | 0.00 | 73 | 1010.8 |
| 20260506103901 | 55 | 350 | 5.2 | 9.6 | 0.00 | 0.00 | 0.00 | 72 | 1010.8 |
| 20260506103213 | 55 | 354 | 5.2 | 11.3 | 0.00 | 0.00 | 0.00 | 72 | 1010.8 |
| 20260506102100 | 56 | 346 | 4.3 | 8.7 | 0.00 | 0.00 | 0.00 | 71 | 1010.7 |
| 20260506101413 | 56 | 337 | 4.3 | 9.6 | 0.00 | 0.00 | 0.00 | 71 | 1010.7 |
| 20260506100300 | 55 | 353 | 5.2 | 11.3 | 0.00 | 0.00 | 0.00 | 71 | 1010.7 |
| 20260506095613 | 55 | 353 | 5.2 | 10.4 | 0.00 | 0.00 | 0.00 | 72 | 1010.7 |
| 20260506094501 | 55 | 348 | 5.2 | 12.2 | 0.00 | 0.00 | 0.00 | 74 | 1010.7 |
| 20260506093603 | 55 | 355 | 6.1 | 13.0 | 0.00 | 0.00 | 0.00 | 73 | 1010.7 |
| 20260506092701 | 55 | 3 | 6.1 | 11.3 | 0.00 | 0.00 | 0.00 | 74 | 1010.6 |
| 20260506091800 | 54 | 352 | 6.1 | 10.4 | 0.00 | 0.00 | 0.00 | 73 | 1010.5 |
| 20260506090900 | 54 | 2 | 5.2 | 10.4 | 0.00 | 0.00 | 0.00 | 74 | 1010.5 |
| 20260506090000 | 54 | 358 | 3.5 | 9.6 | 0.00 | 0.00 | 0.00 | 77 | 1010.4 |
| 20260506085103 | 53 | 359 | 4.3 | 10.4 | 0.00 | 0.00 | 0.00 | 78 | 1010.5 |
| 20260506084200 | 53 | 356 | 6.1 | 11.3 | 0.00 | 0.00 | 0.00 | 79 | 1010.5 |
| 20260506083300 | 52 | 355 | 6.1 | 11.3 | 0.00 | 0.00 | 0.00 | 80 | 1010.4 |
| 20260506082611 | 52 | 351 | 6.1 | 11.3 | 0.00 | 0.00 | 0.00 | 80 | 1010.5 |
| 20260506081500 | 51 | 357 | 4.3 | 10.4 | 0.00 | 0.00 | 0.00 | 82 | 1010.4 |
| 20260506080601 | 50 | 354 | 5.2 | 10.4 | 0.00 | 0.00 | 0.00 | 82 | 1010.4 |
| 20260506073000 | 48 | 332 | 4.3 | 10.4 | 0.00 | 0.00 | 0.00 | 86 | 1010.3 |
| 20260506072100 | 47 | 341 | 5.2 | 12.2 | 0.00 | 0.00 | 0.00 | 87 | 1010.2 |
| 20260506071200 | 47 | 337 | 4.3 | 11.3 | 0.00 | 0.00 | 0.00 | 88 | 1010.2 |
| 20260506070300 | 46 | 352 | 2.6 | 7.8 | 0.00 | 0.00 | 0.00 | 89 | 1010.3 |
| 20260506061801 | 44 | 360 | 3.5 | 11.3 | 0.00 | 0.00 | 0.00 | 89 | 1010.2 |
| 20260506061111 | 44 | 360 | 3.5 | 9.6 | 0.00 | 0.00 | 0.00 | 89 | 1010.2 |
| 20260506050600 | 44 | 360 | 3.5 | 7.8 | 0.00 | 0.00 | 0.00 | 90 | 1010.2 |
| 20260506044800 | 44 | 360 | 1.7 | 7.0 | 0.00 | 0.00 | 0.00 | 89 | 1010.1 |
| 20260506043900 | 44 | 360 | 1.7 | 4.3 | 0.00 | 0.00 | 0.00 | 89 | 1010.2 |
| 20260506043000 | 44 | 360 | 2.6 | 7.0 | 0.00 | 0.00 | 0.00 | 89 | 1010.1 |
| 20260506042101 | 44 | 360 | 2.6 | 5.2 | 0.00 | 0.00 | 0.00 | 89 | 1010.1 |
| 20260506041201 | 44 | 360 | 2.6 | 7.0 | 0.00 | 0.00 | 0.00 | 89 | 1010.2 |
| 20260506040301 | 45 | 360 | 2.6 | 7.0 | 0.00 | 0.00 | 0.00 | 88 | 1010.1 |
| 20260506035400 | 45 | 360 | 2.6 | 5.2 | 0.00 | 0.00 | 0.00 | 88 | 1010.1 |
| 20260506034500 | 45 | 360 | 2.6 | 7.8 | 0.00 | 0.00 | 0.00 | 87 | 1010.2 |
| 20260506033600 | 45 | 360 | 2.6 | 8.7 | 0.00 | 0.00 | 0.00 | 87 | 1010.2 |
| 20260506032700 | 46 | 360 | 3.5 | 7.0 | 0.00 | 0.00 | 0.00 | 87 | 1010.4 |
| 20260506031801 | 46 | 360 | 3.5 | 7.8 | 0.00 | 0.00 | 0.00 | 87 | 1010.4 |
| 20260506030900 | 46 | 360 | 2.6 | 7.8 | 0.00 | 0.00 | 0.00 | 87 | 1010.4 |
| 20260506030001 | 46 | 360 | 2.6 | 7.0 | 0.00 | 0.00 | 0.00 | 87 | 1010.5 |
| 20260506025313 | 46 | 360 | 3.5 | 9.6 | 0.00 | 0.00 | 0.00 | 86 | 1010.6 |
| 20260506024415 | 47 | 360 | 3.5 | 8.7 | 0.00 | 0.00 | 0.00 | 86 | 1010.6 |
| 20260506023301 | 47 | 360 | 2.6 | 8.7 | 0.00 | 0.00 | 0.00 | 87 | 1010.7 |
| 20260506022400 | 47 | 360 | 3.5 | 9.6 | 0.00 | 0.00 | 0.00 | 87 | 1010.7 |
| 20260506021501 | 47 | 360 | 3.5 | 9.6 | 0.00 | 0.00 | 0.00 | 88 | 1010.8 |
| 20260506020601 | 47 | 360 | 3.5 | 8.7 | 0.00 | 0.00 | 0.00 | 89 | 1010.8 |
| 20260506015701 | 47 | 360 | 2.6 | 7.8 | 0.00 | 0.00 | 0.00 | 89 | 1010.8 |
| 20260506014800 | 47 | 360 | 1.7 | 5.2 | 0.00 | 0.00 | 0.00 | 89 | 1010.9 |
| 20260506013900 | 47 | 360 | 1.7 | 3.5 | 0.00 | 0.00 | 0.00 | 88 | 1010.8 |
| 20260506013214 | 48 | 360 | 1.7 | 5.2 | 0.00 | 0.00 | 0.00 | 88 | 1010.8 |
| 20260506012103 | 48 | 360 | 2.6 | 7.8 | 0.00 | 0.00 | 0.00 | 88 | 1010.9 |
| 20260506011200 | 48 | 360 | 3.5 | 8.7 | 0.00 | 0.00 | 0.00 | 89 | 1011.0 |
| 20260506010511 | 47 | 360 | 3.5 | 8.7 | 0.00 | 0.00 | 0.00 | 89 | 1011.0 |
| 20260506005614 | 47 | 360 | 3.5 | 7.0 | 0.00 | 0.00 | 0.00 | 89 | 1011.0 |
| 20260506004500 | 47 | 360 | 3.5 | 7.8 | 0.00 | 0.00 | 0.00 | 90 | 1011.1 |
| 20260506003603 | 47 | 360 | 3.5 | 7.0 | 0.00 | 0.00 | 0.00 | 89 | 1011.2 |
| 20260506002703 | 47 | 360 | 2.6 | 7.0 | 0.00 | 0.00 | 0.00 | 89 | 1011.2 |
| 20260506001801 | 47 | 360 | 2.6 | 7.8 | 0.00 | 0.00 | 0.00 | 89 | 1011.2 |
| 20260506000900 | 47 | 360 | 1.7 | 5.2 | 0.00 | 0.00 | 0.00 | 89 | 1011.3 |
| 20260506000212 | 47 | 351 | 2.6 | 6.1 | 0.00 | 0.00 | 0.00 | 88 | 1011.3 |
| 20260505235315 | 48 | 355 | 3.5 | 7.0 | 0.00 | 0.00 | 0.00 | 88 | 1011.2 |
| 20260505234200 | 48 | 351 | 3.5 | 7.0 | 0.00 | 0.00 | 0.00 | 88 | 1011.2 |
| 20260505233301 | 48 | 357 | 3.5 | 7.0 | 0.00 | 0.00 | 0.00 | 88 | 1011.2 |
| 20260505232617 | 48 | 360 | 3.5 | 7.0 | 0.00 | 0.00 | 0.00 | 88 | 1011.3 |
| 20260505231500 | 48 | 12 | 2.6 | 5.2 | 0.00 | 0.00 | 0.00 | 87 | 1011.4 |
| 20260505230600 | 48 | 10 | 2.6 | 7.0 | 0.00 | 0.00 | 0.00 | 87 | 1011.5 |
| 20260505225703 | 48 | 12 | 2.6 | 7.0 | 0.00 | 0.00 | 0.00 | 86 | 1011.5 |
| 20260505224801 | 49 | 17 | 2.6 | 7.0 | 0.00 | 0.00 | 0.00 | 86 | 1011.5 |
| 20260505224114 | 49 | 20 | 2.6 | 7.8 | 0.00 | 0.00 | 0.00 | 85 | 1011.5 |
| 20260505223001 | 49 | 12 | 1.7 | 6.1 | 0.00 | 0.00 | 0.00 | 85 | 1011.6 |
| 20260505222100 | 49 | 11 | 3.5 | 7.0 | 0.00 | 0.00 | 0.00 | 85 | 1011.6 |
| 20260505221201 | 49 | 8 | 3.5 | 7.8 | 0.00 | 0.00 | 0.00 | 84 | 1011.5 |
| 20260505220301 | 49 | 9 | 2.6 | 7.8 | 0.00 | 0.00 | 0.00 | 84 | 1011.4 |
| 20260505215400 | 50 | 6 | 2.6 | 6.1 | 0.00 | 0.00 | 0.00 | 84 | 1011.4 |
| 20260505214713 | 50 | 7 | 2.6 | 7.0 | 0.00 | 0.00 | 0.00 | 83 | 1011.4 |
| 20260505213600 | 50 | 17 | 2.6 | 7.0 | 0.00 | 0.00 | 0.00 | 83 | 1011.5 |
| 20260505212700 | 50 | 12 | 2.6 | 8.7 | 0.00 | 0.00 | 0.00 | 83 | 1011.5 |
| 20260505212010 | 51 | 7 | 2.6 | 7.0 | 0.00 | 0.00 | 0.00 | 83 | 1011.5 |
| 20260505210901 | 51 | 23 | 2.6 | 7.0 | 0.00 | 0.00 | 0.00 | 83 | 1011.5 |
| 20260505210001 | 51 | 19 | 2.6 | 7.0 | 0.00 | 0.00 | 0.00 | 83 | 1011.6 |
| 20260505205100 | 51 | 14 | 3.5 | 7.0 | 0.00 | 0.00 | 0.00 | 82 | 1011.5 |
| 20260505204201 | 51 | 15 | 2.6 | 6.1 | 0.00 | 0.00 | 0.00 | 82 | 1011.4 |
| 20260505203301 | 51 | 18 | 2.6 | 6.1 | 0.00 | 0.00 | 0.00 | 82 | 1011.4 |
| 20260505202400 | 51 | 32 | 3.5 | 8.7 | 0.00 | 0.00 | 0.00 | 81 | 1011.4 |
| 20260505201500 | 51 | 33 | 1.7 | 4.3 | 0.00 | 0.00 | 0.00 | 81 | 1011.4 |
| 20260505200601 | 52 | 37 | 2.6 | 4.3 | 0.00 | 0.00 | 0.00 | 80 | 1011.3 |
| 20260505195700 | 52 | 43 | 1.7 | 5.2 | 0.00 | 0.00 | 0.00 | 79 | 1011.2 |
| 20260505194801 | 52 | 43 | 1.7 | 3.5 | 0.00 | 0.00 | 0.00 | 78 | 1011.1 |
| 20260505193904 | 52 | 51 | 2.6 | 6.1 | 0.00 | 0.00 | 0.00 | 77 | 1011.0 |
| 20260505193003 | 53 | 50 | 2.6 | 7.8 | 0.00 | 0.00 | 0.00 | 76 | 1010.9 |
| 20260505192315 | 53 | 56 | 3.5 | 7.0 | 0.00 | 0.00 | 0.00 | 75 | 1010.8 |
| 20260505191413 | 53 | 61 | 3.5 | 7.0 | 0.00 | 0.00 | 0.00 | 74 | 1010.8 |
| 20260505190301 | 54 | 65 | 4.3 | 8.7 | 0.00 | 0.00 | 0.00 | 72 | 1010.7 |
| 20260505185612 | 54 | 65 | 3.5 | 7.8 | 0.00 | 0.00 | 0.00 | 71 | 1010.7 |
| 20260505184501 | 55 | 64 | 3.5 | 7.0 | 0.00 | 0.00 | 0.00 | 70 | 1010.7 |
| 20260505183603 | 55 | 63 | 3.5 | 7.8 | 0.00 | 0.00 | 0.00 | 69 | 1010.7 |
| 20260505182701 | 55 | 62 | 3.5 | 8.7 | 0.00 | 0.00 | 0.00 | 68 | 1010.6 |
| 20260505181800 | 56 | 63 | 4.3 | 8.7 | 0.00 | 0.00 | 0.00 | 67 | 1010.6 |
| 20260505180900 | 56 | 62 | 3.5 | 8.7 | 0.00 | 0.00 | 0.00 | 67 | 1010.6 |
| 20260505180000 | 56 | 56 | 3.5 | 8.7 | 0.00 | 0.00 | 0.00 | 68 | 1010.5 |
| 20260505175100 | 57 | 60 | 4.3 | 9.6 | 0.00 | 0.00 | 0.00 | 67 | 1010.6 |
| 20260505174201 | 57 | 64 | 4.3 | 10.4 | 0.00 | 0.00 | 0.00 | 66 | 1010.5 |
| 20260505173303 | 58 | 60 | 4.3 | 8.7 | 0.00 | 0.00 | 0.00 | 66 | 1010.6 |
| 20260505172404 | 58 | 57 | 5.2 | 9.6 | 0.00 | 0.00 | 0.00 | 64 | 1010.5 |
| 20260505171713 | 58 | 58 | 5.2 | 9.6 | 0.00 | 0.00 | 0.00 | 65 | 1010.6 |
| 20260505170600 | 58 | 68 | 5.2 | 9.6 | 0.00 | 0.00 | 0.00 | 65 | 1010.6 |
| 20260505165701 | 59 | 74 | 4.3 | 10.4 | 0.00 | 0.00 | 0.00 | 64 | 1010.5 |
| 20260505165015 | 58 | 74 | 4.3 | 11.3 | 0.00 | 0.00 | 0.00 | 64 | 1010.7 |
| 20260505163901 | 58 | 85 | 5.2 | 10.4 | 0.00 | 0.00 | 0.00 | 66 | 1010.7 |
| 20260505163001 | 58 | 81 | 4.3 | 9.6 | 0.00 | 0.00 | 0.00 | 68 | 1010.6 |
| 20260505162312 | 57 | 89 | 5.2 | 9.6 | 0.00 | 0.00 | 0.00 | 69 | 1010.6 |
| 20260505161200 | 58 | 95 | 3.5 | 9.6 | 0.00 | 0.00 | 0.00 | 66 | 1010.6 |
| 20260505160512 | 58 | 98 | 4.3 | 8.7 | 0.00 | 0.00 | 0.00 | 67 | 1010.6 |
| 20260505152700 | 60 | 92 | 5.2 | 10.4 | 0.00 | 0.00 | 0.00 | 60 | 1010.8 |
| 20260505151800 | 60 | 97 | 5.2 | 10.4 | 0.00 | 0.00 | 0.00 | 59 | 1010.8 |
| 20260505150900 | 60 | 90 | 5.2 | 9.6 | 0.00 | 0.00 | 0.00 | 60 | 1010.9 |
| 20260505150213 | 60 | 97 | 4.3 | 9.6 | 0.00 | 0.00 | 0.00 | 61 | 1010.9 |